Location: Narragansett
(41.4496°N, 71.4488°W)
Time: 18:04:11
(UTC+00:00)

BlueWalker 3 - Visible Passes

Search period start: 27 November 2022 00:00
Search period end: 07 December 2022 00:00
Orbit: 500 x 519 km, 53.2° (Epoch: 27 November)

Date Brightness Start Highest point End Pass type
(mag) Time Alt. Az. Time Alt. Az. Time Alt. Az.
27 Nov 5.1 00:12:12 10° NW 00:12:17 10° NW 00:12:17 10° NW visible
27 Nov 3.3 22:13:05 10° W 22:16:38 32° NNW 22:19:52 12° NE visible
27 Nov 4.7 23:53:55 10° NW 23:54:42 12° NNW 23:54:42 12° NNW visible
28 Nov 3.3 21:54:48 10° W 21:58:19 31° NNW 22:01:49 10° NE visible
28 Nov 4.4 23:35:39 10° NW 23:37:05 14° NNW 23:37:05 14° NNW visible
29 Nov 4.2 23:17:22 10° NW 23:19:26 15° N 23:19:26 15° N visible
30 Nov 4.1 22:59:03 10° NW 23:01:21 15° N 23:01:47 14° N visible
01 Dec 4.1 22:40:45 10° NW 22:43:01 15° N 22:44:08 13° NNE visible
02 Dec 4.1 22:22:26 10° NW 22:24:41 15° N 22:26:29 11° NNE visible
03 Dec 4.1 22:04:06 10° NW 22:06:22 15° N 22:08:35 10° NNE visible
03 Dec 4.6 23:43:07 10° NNW 23:43:40 13° NNW 23:43:40 13° NNW visible
04 Dec 4.1 21:45:47 10° NW 21:48:01 15° N 21:50:15 10° NE visible
04 Dec 4.2 23:24:43 10° NNW 23:26:05 17° NNW 23:26:05 17° NNW visible
05 Dec 3.7 23:06:19 10° NNW 23:08:32 21° N 23:08:32 21° N visible
06 Dec 3.3 22:47:54 10° NNW 22:51:04 23° NNE 22:51:04 23° NNE visible
